Location: Foligno
(42.9600°N, 12.7050°E)
Time: 19:32:43
(UTC+02:00)

ISS - Visible Passes

Search period start: 29 July 2021 00:00
Search period end: 08 August 2021 00:00
Orbit: 419 x 421 km, 51.6° (Epoch: 29 July)

Date Brightness Start Highest point End Pass type
(mag) Time Alt. Az. Time Alt. Az. Time Alt. Az.
29 Jul -3.0 21:37:09 10° NW 21:40:26 47° NNE 21:42:59 15° E visible
29 Jul -1.7 23:14:16 10° WNW 23:15:56 20° WSW 23:15:56 20° WSW visible
30 Jul -3.1 22:26:41 10° WNW 22:29:54 41° SW 22:30:18 39° SSW visible
31 Jul -3.7 21:39:16 10° WNW 21:42:38 70° SW 21:44:44 21° SE visible
01 Aug -1.5 22:29:44 10° W 22:31:45 15° SW 22:32:11 15° SW visible
02 Aug -2.0 21:41:47 10° W 21:44:36 25° SW 21:46:44 14° S visible
03 Aug -2.8 20:54:11 10° WNW 20:57:24 41° SW 21:00:34 10° SSE visible
05 Aug -1.1 20:57:13 10° W 20:59:13 15° SW 21:01:13 10° SSW visible
